Regional Weather Roundup
Issued by NWS

Home | Current Version | Previous Version | Graphics & Text | Print | Product List | Glossary On
Versions: 1 2 3 4 5 6 7 8 9 10 11 12 13 14 15 16 17 18 19 20 21 22 23 24 25 26 27
000
ASUS43 KDMX 161407
RWRIA

WEATHER ROUNDUP FOR IOWA
NATIONAL WEATHER SERVICE DES MOINES IA
900 AM CDT WED APR 16 2014

NOTE: "FAIR" INDICATES FEW OR NO CLOUDS BELOW 12,000 FEET WITH NO
SIGNIFICANT WEATHER AND/OR OBSTRUCTIONS TO VISIBILITY.

* - THESE STATIONS ARE NOT NWS STATIONS...THUS NOT UNDER NWS
QUALITY CONTROL.  THEY ALSO DO NOT REPORT WEATHER SUCH
AS PRECIPITATION OR FOG.

IAZ001>003-012>014-020>022-031>034-043>046-161500-
   NORTHWEST IOWA

CITY           SKY/WX    TMP DP  RH WIND       PRES   REMARKS
CARROLL *      SUNNY     46  28  49 S29G37    29.77F
CHEROKEE *     CLOUDY    46  30  53 S18       29.70F
DENISON *      SUNNY     46  28  49 S26G35    29.72F
LE MARS *      MOSUNNY   46  30  53 S23G32    29.65R
ORANGE CITY *  MOSUNNY   46  27  46 S22G30    29.66R
SHELDON *      SUNNY     45  30  57 S14G22    29.68R
SIOUX CITY     CLOUDY    49  28  44 S21G32    29.68R
SPENCER        CLOUDY    45  31  58 S24G33    29.70F
STORM LAKE *   SUNNY     45  32  61 S23G31    29.72F
$$

IAZ055>058-069>071-079>083-090>094-161500-
   SOUTHWEST IOWA

CITY           SKY/WX    TMP DP  RH WIND       PRES   REMARKS
ATLANTIC *     SUNNY     46  28  49 S22G31    29.79F
AUDUBON *      SUNNY     46  25  42 S21G29    29.80F
CLARINDA *     SUNNY     50  30  46 S22G31    29.86S
COUNCIL BLFS * SUNNY     50  30  46 S23G32    29.74F
CRESTON *      SUNNY     46  28  49 S25G37    29.86S
HARLAN  *      SUNNY     48  30  49 S23G33    29.79F
LAMONI         PTSUNNY   48  27  44 S18G32    29.92F
RED OAK *      SUNNY     52  30  43 S25G37    29.81F
SHENANDOAH *   SUNNY     50  30  46 S24G35    29.82S
$$

IAZ047>049-059>061-072>074-084-161500-
   CENTRAL IOWA

CITY           SKY/WX    TMP DP  RH WIND       PRES   REMARKS
AMES           CLOUDY    44  29  55 S17       29.88F
ANKENY *       SUNNY     48  28  46 S21G35    29.89F
CHARITON *     SUNNY     48  28  46 S28G38    29.93F
DES MOINES     CLOUDY    48  27  44 S22G30    29.90F
GRINNELL*      PTSUNNY   41  28  60 SE23G30   29.96F
KNOXVILLE *    SUNNY     48  27  43 S25G37    29.93F
MARSHALLTOWN   CLOUDY    41  27  57 S24G31    29.92F
NEWTON *       SUNNY     43  28  56 S18G28    29.95S
PELLA *        PTSUNNY   46  28  49 S14G21    29.96F
PERRY *          N/A     46  30  53 S24       29.85S
$$

IAZ004>006-015-016-023>025-035-036-161500-
   NORTH CENTRAL IOWA

CITY           SKY/WX    TMP DP  RH WIND       PRES   REMARKS
ALGONA *       SUNNY     39  30  70 SE24      29.78F WCI  28
CLARION *      SUNNY     39  30  70 S25G32    29.83F WCI  28
ESTHERVILLE    CLOUDY    38  31  76 SE23G31   29.74F WCI  27
FORT DODGE *   CLOUDY    45  28  53 S15G28    29.82F
MASON CITY     CLOUDY    38  27  64 SE25      29.89F WCI  27
FOREST CITY *  MOSUNNY   39  28  65 SE22G28   29.84F WCI  29
IOWA FALLS *     N/A     41  28  60 SE23G29   29.89F
$$

IAZ007>011-017>019-026>030-037>042-050>054-066-161500-
   NORTHEAST IOWA

CITY           SKY/WX    TMP DP  RH WIND       PRES   REMARKS
CEDAR RAPIDS   PTSUNNY   40  25  55 SE16G26   30.04F WCI  31
CHARLES CITY * PTSUNNY   37  25  60 SE23G30   29.94S WCI  26
CLINTON *      PTSUNNY   39  25  56 S20G25    30.19F WCI  30
DECORAH *      MOSUNNY   37  23  56 S18G28    29.99F WCI  27
DUBUQUE        PTSUNNY   37  25  61 S21G28    30.10F WCI  26
MONTICELLO *   MOSUNNY   39  27  60 SE16G26   30.09S WCI  30
OELWEIN *      MOSUNNY  N/A N/A N/A SE20G28   30.00F
WATERLOO       CLOUDY    40  25  55 SE21G32   29.96F WCI  30
$$

IAZ064-065-067-068-078-161500-
   EAST CENTRAL IOWA

CITY           SKY/WX    TMP DP  RH WIND       PRES   REMARKS
DAVENPORT      MOSUNNY   38  25  59 S21G28    30.15F WCI  28
IOWA CITY      MOSUNNY   40  27  59 SE17      30.09F WCI  31
MT. PLEASANT * SUNNY     43  27  52 S21G26    30.09F
MUSCATINE *    SUNNY     41  27  56 S18G26    30.11F
QUAD CITIES    MOSUNNY   39  25  57 SE16G22   30.16S WCI  30
$$

IAZ062-063-075>077-085>089-095>099-161500-
   SOUTHEAST IOWA

CITY           SKY/WX    TMP DP  RH WIND       PRES   REMARKS
BURLINGTON     MOSUNNY   42  26  53 S23G32    30.11F
FAIRFIELD *    SUNNY     45  25  45 S25       30.04F
FORT MADISON * SUNNY     41  30  65 S14G22    30.12S
KEOKUK *       SUNNY     45  27  49 S15       30.10F
OSKALOOSA *      N/A     45  30  57 S18       30.01S
CENTERVILLE *  SUNNY     48  27  43 S20G25    29.99F
OTTUMWA        MOSUNNY   45  27  49 S20       30.00F
WASHINGTON *   SUNNY     41  28  60 S20G28    30.07F
$$

ABBREVIATIONS USED IN REMARKS
   TC - TEMPERATURES IN CELSIUS
  WCI - WIND CHILL INDEX
   HX - HEAT INDEX
  VSB - VISIBILITY
$$




USA.gov is the U.S. government's official web portal to all federal, state and local government web resources and services.